Starlink 1443

operational
NORAD ID: 45660 Int'l Des: 2020-035 Owner: SPXS Country: US Constellation: starlink
LEOCIRCULARSTARLINK_TYPE

About Starlink 1443

Description loading...

Live Position

Loading 3D Globe...

Upcoming Passes

Altitude History

Altitude vs Time

uPlot chart will show altitude changes over time

Two-Line Element Set

1 45660U 20035D 25304.24738379 .00005308 00000-0 37484-3 0 9993
2 45660 53.0548 287.7104 0001660 94.4170 265.7008 15.06411428299229
Epoch: Oct 31, 2025 • Age: 30 hours

Current Status

Altitude 549.7 km
Velocity 7.59 km/s
Sub-Earth Point 38.98°N, 91.92°E
Launch Date Jun 4, 2020
Age 5.4 years
Type internet

Technical Details

Classification Payload
Mass 260.00 kg
Dry Mass 248.00 kg
Total Mass 260.00 kg
Length 0.20 m
Diameter 2.80 m
Span 9.00 m
Shape Box + pan
Manufacturer SPXS
Bus Type Starlink
Phase Status In Orbit
Owner/State SPXS/US

Large Constellations

Loading constellations...